Year,Month,Day,Hour,Minute,Value (Times are PST for temperature in C)
2008,08,05,00,00,14.80
2008,08,05,00,01,14.80
2008,08,05,00,02,14.80
2008,08,05,00,03,14.80
2008,08,05,00,04,14.80
2008,08,05,00,05,14.80
2008,08,05,00,06,14.80
2008,08,05,00,07,14.80
2008,08,05,00,08,14.80
2008,08,05,00,09,14.70
2008,08,05,00,10,14.70
2008,08,05,00,11,14.70
2008,08,05,00,12,14.70
2008,08,05,00,13,14.70
2008,08,05,01,02,14.10
2008,08,05,01,03,14.10
2008,08,05,01,04,14.10
2008,08,05,01,05,14.10
2008,08,05,01,06,14.10
2008,08,05,01,07,14.10
2008,08,05,01,08,14.10
2008,08,05,01,09,14.20
2008,08,05,01,10,14.20
2008,08,05,01,11,14.20
2008,08,05,01,12,14.20
2008,08,05,01,13,14.20
2008,08,05,01,14,14.20
2008,08,05,01,15,14.20
2008,08,05,01,16,14.20
2008,08,05,01,17,14.30
2008,08,05,01,18,14.30
2008,08,05,01,19,14.30
2008,08,05,01,20,14.30
2008,08,05,01,21,14.30
2008,08,05,01,22,14.40
2008,08,05,01,23,14.40
2008,08,05,01,24,14.50
2008,08,05,01,25,14.50
2008,08,05,01,26,14.50
2008,08,05,01,27,14.60
2008,08,05,01,28,14.70
2008,08,05,01,29,14.80
2008,08,05,01,30,14.80
2008,08,05,01,31,14.90
2008,08,05,01,32,14.90
2008,08,05,01,33,15.00
2008,08,05,01,34,15.00
2008,08,05,01,35,15.00
2008,08,05,01,36,15.00
2008,08,05,01,37,15.00
2008,08,05,01,38,15.00
2008,08,05,01,39,15.00
2008,08,05,01,40,15.00
2008,08,05,01,41,15.20
2008,08,05,01,42,15.20
2008,08,05,01,43,15.20
2008,08,05,01,44,15.30
2008,08,05,01,45,15.30
2008,08,05,01,46,15.20
2008,08,05,01,47,15.20
2008,08,05,01,48,15.20
2008,08,05,01,49,15.20
2008,08,05,01,50,15.20
2008,08,05,01,51,15.20
2008,08,05,01,52,15.20
2008,08,05,01,53,15.20
2008,08,05,01,54,15.20
2008,08,05,01,55,15.30
2008,08,05,01,56,15.30
2008,08,05,01,57,15.30
2008,08,05,01,58,15.20
2008,08,05,01,59,15.20
2008,08,05,02,00,15.20
2008,08,05,02,01,15.30
2008,08,05,02,02,15.30
2008,08,05,02,03,15.30
2008,08,05,02,04,15.30
2008,08,05,02,05,15.30
2008,08,05,02,06,15.30
2008,08,05,02,07,15.30
2008,08,05,02,08,15.30
2008,08,05,02,09,15.30
2008,08,05,02,10,15.30
2008,08,05,02,11,15.20
2008,08,05,02,12,15.20
2008,08,05,02,13,15.10
2008,08,05,02,14,15.10
2008,08,05,02,15,15.10
2008,08,05,02,16,15.20
2008,08,05,02,17,15.20
2008,08,05,02,18,15.20
2008,08,05,02,19,15.20
2008,08,05,02,20,15.30
2008,08,05,02,21,15.40
2008,08,05,02,22,15.50
2008,08,05,02,23,15.50
2008,08,05,02,24,15.40
2008,08,05,02,25,15.40
2008,08,05,02,26,15.30
2008,08,05,02,27,15.20
2008,08,05,02,28,15.10
2008,08,05,02,29,15.10
2008,08,05,02,30,15.00
2008,08,05,02,31,15.00
2008,08,05,02,32,15.00
2008,08,05,02,33,15.00
2008,08,05,02,34,15.00
2008,08,05,02,35,14.90
2008,08,05,02,36,14.80
2008,08,05,02,37,14.80
2008,08,05,02,38,14.80
2008,08,05,02,39,14.70
2008,08,05,02,40,14.70
2008,08,05,02,41,14.60
2008,08,05,02,42,14.60
2008,08,05,02,43,14.60
2008,08,05,02,44,14.60
2008,08,05,02,45,14.50
2008,08,05,02,46,14.40
2008,08,05,02,47,14.40
2008,08,05,02,48,14.40
2008,08,05,02,49,14.40
2008,08,05,02,50,14.40
2008,08,05,02,51,14.40
2008,08,05,02,52,14.40
2008,08,05,02,53,14.40
2008,08,05,02,54,14.40
2008,08,05,02,55,14.40
2008,08,05,02,56,14.50
2008,08,05,02,57,14.50
2008,08,05,02,58,14.40
2008,08,05,02,59,14.40
2008,08,05,03,00,14.40
2008,08,05,03,01,14.40
2008,08,05,03,02,14.40
2008,08,05,03,03,14.30
2008,08,05,03,04,14.30
2008,08,05,03,05,14.20
2008,08,05,03,06,14.20
2008,08,05,03,07,14.10
2008,08,05,03,08,14.10
2008,08,05,03,09,14.00
2008,08,05,03,10,14.00
2008,08,05,03,11,14.00
2008,08,05,03,12,13.90
2008,08,05,03,13,13.90
2008,08,05,03,14,13.80
2008,08,05,03,15,13.80
2008,08,05,03,16,13.70
2008,08,05,03,17,13.70
2008,08,05,03,18,13.60
2008,08,05,03,19,13.60
2008,08,05,03,20,13.60
2008,08,05,03,21,13.60
2008,08,05,03,22,13.50
2008,08,05,03,23,13.40
2008,08,05,03,24,13.40
2008,08,05,03,25,13.40
2008,08,05,03,26,13.30
2008,08,05,03,27,13.30
2008,08,05,03,28,13.30
2008,08,05,03,29,13.20
2008,08,05,03,30,13.20
2008,08,05,03,31,13.20
2008,08,05,03,32,13.20
2008,08,05,03,33,13.20
2008,08,05,03,34,13.20
2008,08,05,03,35,13.20
2008,08,05,03,36,13.20
2008,08,05,03,37,13.20
2008,08,05,03,38,13.10
2008,08,05,03,39,13.10
2008,08,05,03,40,13.10
2008,08,05,03,41,13.10
2008,08,05,03,42,13.00
2008,08,05,03,43,13.00
2008,08,05,03,44,13.00
2008,08,05,03,45,12.90
2008,08,05,03,46,12.90
2008,08,05,03,47,12.90
2008,08,05,03,48,12.90
2008,08,05,03,49,12.80
2008,08,05,03,50,12.80
2008,08,05,03,51,12.80
2008,08,05,03,52,12.80
2008,08,05,03,53,12.80
2008,08,05,03,54,12.80
2008,08,05,03,55,12.80
2008,08,05,03,56,12.80
2008,08,05,03,57,12.80
2008,08,05,03,58,12.80
2008,08,05,03,59,12.80
2008,08,05,04,00,12.70
2008,08,05,04,01,12.70
2008,08,05,04,02,12.70
2008,08,05,04,03,12.70
2008,08,05,04,04,12.70
2008,08,05,04,05,12.70
2008,08,05,04,06,12.70
2008,08,05,04,07,12.70
2008,08,05,04,08,12.70
2008,08,05,04,09,12.70
2008,08,05,04,10,12.70
2008,08,05,04,11,12.60
2008,08,05,04,12,12.60
2008,08,05,04,13,12.60
2008,08,05,04,14,12.60
2008,08,05,04,15,12.50
2008,08,05,04,16,12.40
2008,08,05,04,17,12.40
2008,08,05,04,18,12.30
2008,08,05,04,19,12.30
2008,08,05,04,20,12.20
2008,08,05,04,21,12.20
2008,08,05,04,22,12.20
2008,08,05,04,23,12.20
2008,08,05,04,24,12.20
2008,08,05,04,25,12.20
2008,08,05,04,26,12.20
2008,08,05,04,27,12.20
2008,08,05,04,28,12.10
2008,08,05,04,29,12.10
2008,08,05,04,30,12.10
2008,08,05,04,31,12.10
2008,08,05,04,32,12.10
2008,08,05,04,33,12.00
2008,08,05,04,34,12.00
2008,08,05,04,35,12.00
2008,08,05,04,36,12.00
2008,08,05,04,37,12.00
2008,08,05,04,38,11.90
2008,08,05,04,39,11.90
2008,08,05,04,40,11.90
2008,08,05,04,41,11.90
2008,08,05,04,42,11.80
2008,08,05,04,43,11.80
2008,08,05,04,44,11.80
2008,08,05,04,45,11.80
2008,08,05,04,46,11.70
2008,08,05,04,47,11.70
2008,08,05,04,48,11.70
2008,08,05,04,49,11.70
2008,08,05,04,50,11.60
2008,08,05,04,51,11.60
2008,08,05,04,52,11.60
2008,08,05,04,53,11.60
2008,08,05,04,54,11.60
2008,08,05,04,55,11.60
2008,08,05,04,56,11.70
2008,08,05,04,57,11.70
2008,08,05,04,58,11.70
2008,08,05,04,59,11.70
2008,08,05,05,00,11.70
2008,08,05,05,01,11.70
2008,08,05,05,02,11.70
2008,08,05,05,03,11.70
2008,08,05,05,04,11.70
2008,08,05,05,05,11.70
2008,08,05,05,06,11.70
2008,08,05,05,07,11.60
2008,08,05,05,08,11.60
2008,08,05,05,09,11.60
2008,08,05,05,10,11.50
2008,08,05,05,11,11.50
2008,08,05,05,12,11.50
2008,08,05,05,13,11.40
2008,08,05,05,14,11.40
2008,08,05,05,15,11.40
2008,08,05,05,16,11.40
2008,08,05,05,17,11.40
2008,08,05,05,18,11.30
2008,08,05,05,19,11.30
2008,08,05,05,20,11.30
2008,08,05,05,21,11.20
2008,08,05,05,22,11.20
2008,08,05,05,23,11.10
2008,08,05,05,24,11.10
2008,08,05,05,25,11.10
2008,08,05,05,26,11.10
2008,08,05,05,27,11.00
2008,08,05,05,28,11.00
2008,08,05,05,29,11.00
2008,08,05,05,30,11.00
2008,08,05,05,31,10.90
2008,08,05,05,32,11.00
2008,08,05,05,33,11.00
2008,08,05,05,34,11.00
2008,08,05,05,35,11.10
2008,08,05,05,36,11.10
2008,08,05,05,37,11.10
2008,08,05,05,38,11.10
2008,08,05,05,39,11.10
2008,08,05,05,40,11.10
2008,08,05,05,41,11.00
2008,08,05,05,42,11.00
2008,08,05,05,43,11.00
2008,08,05,05,44,10.90
2008,08,05,05,45,10.90
2008,08,05,05,46,10.90
2008,08,05,05,47,10.90
2008,08,05,05,48,10.90
2008,08,05,05,49,10.90
2008,08,05,05,50,10.90
2008,08,05,05,51,10.90
2008,08,05,05,52,10.90
2008,08,05,05,53,10.90
2008,08,05,05,54,10.90
2008,08,05,05,55,10.90
2008,08,05,05,56,10.90
2008,08,05,05,57,10.90
2008,08,05,05,58,10.90
2008,08,05,05,59,10.80
2008,08,05,06,00,10.80
2008,08,05,06,01,10.80
2008,08,05,06,02,10.80
2008,08,05,06,03,10.80
2008,08,05,06,04,10.80
2008,08,05,06,05,10.80
2008,08,05,06,06,10.80
2008,08,05,06,07,10.80
2008,08,05,06,08,10.80
2008,08,05,06,09,10.80
2008,08,05,06,10,10.80
2008,08,05,06,11,10.80
2008,08,05,06,12,10.80
2008,08,05,06,13,10.90
2008,08,05,06,14,10.90
2008,08,05,06,15,10.90
2008,08,05,06,16,10.90
2008,08,05,06,17,11.00
2008,08,05,06,18,11.00
2008,08,05,06,19,11.10
2008,08,05,06,20,11.10
2008,08,05,06,21,11.10
2008,08,05,06,22,11.20
2008,08,05,06,23,11.20
2008,08,05,06,24,11.20
2008,08,05,06,25,11.20
2008,08,05,06,26,11.20
2008,08,05,06,27,11.30
2008,08,05,06,28,11.30
2008,08,05,06,29,11.30
2008,08,05,06,30,11.30
2008,08,05,06,31,11.40
2008,08,05,06,32,11.40
2008,08,05,06,33,11.50
2008,08,05,06,34,11.50
2008,08,05,06,35,11.60
2008,08,05,06,36,11.70
2008,08,05,06,37,11.70
2008,08,05,06,38,11.70
2008,08,05,06,39,11.80
2008,08,05,06,40,11.80
2008,08,05,06,41,11.80
2008,08,05,06,42,11.90
2008,08,05,06,43,11.90
2008,08,05,06,44,11.90
2008,08,05,06,45,11.90
2008,08,05,06,46,12.00
2008,08,05,06,47,12.00
2008,08,05,06,48,12.00
2008,08,05,06,49,12.00
2008,08,05,06,50,12.10
2008,08,05,06,51,12.10
2008,08,05,06,52,12.10
2008,08,05,06,53,12.10
2008,08,05,06,54,12.20
2008,08,05,06,55,12.20
2008,08,05,06,56,12.20
2008,08,05,06,57,12.20
2008,08,05,06,58,12.20
2008,08,05,06,59,12.30
2008,08,05,07,00,12.30
2008,08,05,07,01,12.30
2008,08,05,07,02,12.30
2008,08,05,07,03,12.40
2008,08,05,07,04,12.40
2008,08,05,07,05,12.50
2008,08,05,07,06,12.50
2008,08,05,07,07,12.60
2008,08,05,07,08,12.60
2008,08,05,07,09,12.60
2008,08,05,07,10,12.60
2008,08,05,07,11,12.70
2008,08,05,07,12,12.70
2008,08,05,07,13,12.80
2008,08,05,07,14,12.80
2008,08,05,07,15,12.80
2008,08,05,07,16,12.90
2008,08,05,07,17,12.90
2008,08,05,07,18,12.90
2008,08,05,07,19,13.00
2008,08,05,07,20,13.10
2008,08,05,07,21,13.10
2008,08,05,07,22,13.10
2008,08,05,07,23,13.20
2008,08,05,07,24,13.20
2008,08,05,07,25,13.20
2008,08,05,07,26,13.30
2008,08,05,07,27,13.40
2008,08,05,07,28,13.40
2008,08,05,07,29,13.50
2008,08,05,07,30,13.50
2008,08,05,07,31,13.60
2008,08,05,07,32,13.70
2008,08,05,07,33,13.80
2008,08,05,07,34,13.90
2008,08,05,07,35,14.00
2008,08,05,07,36,14.00
2008,08,05,07,37,14.10
2008,08,05,07,38,14.20
2008,08,05,07,39,14.30
2008,08,05,07,40,14.40
2008,08,05,07,41,14.50
2008,08,05,07,42,14.70
2008,08,05,07,43,14.80
2008,08,05,07,44,14.90
2008,08,05,07,45,15.00
2008,08,05,07,46,15.00
2008,08,05,07,47,15.00
2008,08,05,07,48,15.10
2008,08,05,07,49,15.20
2008,08,05,07,50,15.30
2008,08,05,07,51,15.30
2008,08,05,07,52,15.40
2008,08,05,07,53,15.40
2008,08,05,07,54,15.40
2008,08,05,07,55,15.40
2008,08,05,07,56,15.40
2008,08,05,07,57,15.40
2008,08,05,07,58,15.40
2008,08,05,07,59,15.40
2008,08,05,08,00,15.40
2008,08,05,08,01,15.50
2008,08,05,08,02,15.50
2008,08,05,08,03,15.50
2008,08,05,08,04,15.60
2008,08,05,08,05,15.60
2008,08,05,08,06,15.60
2008,08,05,08,07,15.70
2008,08,05,08,08,15.70
2008,08,05,08,09,15.70
2008,08,05,08,10,15.70
2008,08,05,08,11,15.70
2008,08,05,08,12,15.80
2008,08,05,08,13,15.80
2008,08,05,08,14,15.80
2008,08,05,08,15,15.80
2008,08,05,08,16,15.80
2008,08,05,08,17,15.80
2008,08,05,08,18,15.80
2008,08,05,08,19,15.80
2008,08,05,08,20,15.80
2008,08,05,08,21,15.90
2008,08,05,08,22,15.90
2008,08,05,08,23,15.90
2008,08,05,08,24,15.90
2008,08,05,08,25,15.90
2008,08,05,08,26,15.90
2008,08,05,08,27,15.90
2008,08,05,08,28,15.90
2008,08,05,08,29,16.00
2008,08,05,08,30,16.00
2008,08,05,08,31,16.00
2008,08,05,08,32,16.10
2008,08,05,08,33,16.10
2008,08,05,08,34,16.10
2008,08,05,08,35,16.20
2008,08,05,08,36,16.20
2008,08,05,08,37,16.20
2008,08,05,08,38,16.20
2008,08,05,08,39,16.30
2008,08,05,08,40,16.30
2008,08,05,08,41,16.30
2008,08,05,08,42,16.40
2008,08,05,08,43,16.40
2008,08,05,08,44,16.40
2008,08,05,08,45,16.50
2008,08,05,08,46,16.50
2008,08,05,08,47,16.60
2008,08,05,08,48,16.60
2008,08,05,08,49,16.70
2008,08,05,08,50,16.70
2008,08,05,08,51,16.80
2008,08,05,08,52,16.80
2008,08,05,08,53,16.80
2008,08,05,08,54,16.80
2008,08,05,08,55,16.90
2008,08,05,08,56,16.90
2008,08,05,08,57,16.90
2008,08,05,08,58,16.90
2008,08,05,08,59,16.90
2008,08,05,09,00,16.90
2008,08,05,09,01,16.90
2008,08,05,09,02,16.90
2008,08,05,09,03,16.90
2008,08,05,09,04,17.00
2008,08,05,09,05,17.00
2008,08,05,09,06,17.10
2008,08,05,09,07,17.10
2008,08,05,09,08,17.10
2008,08,05,09,09,17.20
2008,08,05,09,10,17.20
2008,08,05,09,11,17.10
2008,08,05,09,12,17.10
2008,08,05,09,13,17.10
2008,08,05,09,14,17.10
2008,08,05,09,15,17.10
2008,08,05,09,16,17.20
2008,08,05,09,17,17.20
2008,08,05,09,18,17.20
2008,08,05,09,19,17.20
2008,08,05,09,20,17.20
2008,08,05,09,21,17.20
2008,08,05,09,22,17.20
2008,08,05,09,23,17.20
2008,08,05,09,24,17.20
2008,08,05,09,25,17.20
2008,08,05,09,26,17.20
2008,08,05,09,27,17.30
2008,08,05,09,28,17.30
2008,08,05,09,29,17.30
2008,08,05,09,30,17.30
2008,08,05,09,31,17.40
2008,08,05,09,32,17.40
2008,08,05,09,33,17.40
2008,08,05,09,34,17.40
2008,08,05,09,35,17.50
2008,08,05,09,36,17.60
2008,08,05,09,37,17.70
2008,08,05,09,38,17.70
2008,08,05,09,39,17.80
2008,08,05,09,40,17.90
2008,08,05,09,41,18.00
2008,08,05,09,42,18.10
2008,08,05,09,43,18.10
2008,08,05,09,44,18.20
2008,08,05,09,45,18.30
2008,08,05,09,46,18.30
2008,08,05,09,47,18.30
2008,08,05,09,48,18.30
2008,08,05,09,49,18.30
2008,08,05,09,50,18.30
2008,08,05,09,51,18.30
2008,08,05,09,52,18.30
2008,08,05,09,53,18.30
2008,08,05,09,54,18.30
2008,08,05,09,55,18.30
2008,08,05,09,56,18.40
2008,08,05,09,57,18.40
2008,08,05,09,58,18.40
2008,08,05,09,59,18.40
2008,08,05,10,00,18.50
2008,08,05,10,01,18.50
2008,08,05,10,02,18.60
2008,08,05,10,03,18.60
2008,08,05,10,04,18.60
2008,08,05,10,05,18.60
2008,08,05,10,06,18.60
2008,08,05,10,07,18.60
2008,08,05,10,08,18.60
2008,08,05,10,09,18.60
2008,08,05,10,10,18.60
2008,08,05,10,11,18.60
2008,08,05,10,12,18.60
2008,08,05,10,13,18.60
2008,08,05,10,14,18.60
2008,08,05,10,15,18.60
2008,08,05,10,16,18.70
2008,08,05,10,17,18.70
2008,08,05,10,18,18.70
2008,08,05,10,19,18.70
2008,08,05,10,20,18.70
2008,08,05,10,21,18.70
2008,08,05,10,22,18.70
2008,08,05,10,23,18.70
2008,08,05,10,24,18.70
2008,08,05,10,25,18.70
2008,08,05,10,26,18.80
2008,08,05,10,27,18.80
2008,08,05,10,28,18.80
2008,08,05,10,29,18.80
2008,08,05,10,30,18.80
2008,08,05,10,31,18.90
2008,08,05,10,32,18.90
2008,08,05,10,33,18.90
2008,08,05,10,34,19.00
2008,08,05,10,35,19.00
2008,08,05,10,36,19.10
2008,08,05,10,37,19.10
2008,08,05,10,38,19.10
2008,08,05,10,39,19.20
2008,08,05,10,40,19.30
2008,08,05,10,41,19.40
2008,08,05,10,42,19.50
2008,08,05,10,43,19.60
2008,08,05,10,44,19.80
2008,08,05,10,45,19.80
2008,08,05,10,46,19.90
2008,08,05,10,47,20.00
2008,08,05,10,48,20.10
2008,08,05,10,49,20.10
2008,08,05,10,50,20.00
2008,08,05,10,51,20.00
2008,08,05,10,52,19.90
2008,08,05,10,53,20.00
2008,08,05,10,54,20.00
2008,08,05,10,55,20.00
2008,08,05,10,56,20.10
2008,08,05,10,57,20.00
2008,08,05,10,58,20.00
2008,08,05,10,59,20.10
2008,08,05,11,00,20.10
2008,08,05,11,01,20.10
2008,08,05,11,02,20.10
2008,08,05,11,03,20.10
2008,08,05,11,04,20.10
2008,08,05,11,05,20.10
2008,08,05,11,06,20.10
2008,08,05,11,07,20.00
2008,08,05,11,08,20.00
2008,08,05,11,09,20.00
2008,08,05,11,10,20.00
2008,08,05,11,11,20.00
2008,08,05,11,12,20.10
2008,08,05,11,13,20.10
2008,08,05,11,14,20.00
2008,08,05,11,15,20.00
2008,08,05,11,16,20.00
2008,08,05,11,17,20.00
2008,08,05,11,18,20.00
2008,08,05,11,19,20.00
2008,08,05,11,20,19.90
2008,08,05,11,21,19.90
2008,08,05,11,22,20.00
2008,08,05,11,23,20.00
2008,08,05,11,24,20.10
2008,08,05,11,25,20.10
2008,08,05,11,26,20.20
2008,08,05,11,27,20.20
2008,08,05,11,28,20.30
2008,08,05,11,29,20.40
2008,08,05,11,30,20.50
2008,08,05,11,31,20.60
2008,08,05,11,32,20.70
2008,08,05,11,33,20.80
2008,08,05,11,34,20.90
2008,08,05,11,35,21.00
2008,08,05,11,36,21.10
2008,08,05,11,37,21.20
2008,08,05,11,38,21.20
2008,08,05,11,39,21.20
2008,08,05,11,40,21.20
2008,08,05,11,41,21.10
2008,08,05,11,42,21.20
2008,08,05,11,43,21.20
2008,08,05,11,44,21.30
2008,08,05,11,45,21.30
2008,08,05,11,46,21.40
2008,08,05,11,47,21.40
2008,08,05,11,48,21.40
2008,08,05,11,49,21.40
2008,08,05,11,50,21.40
2008,08,05,11,51,21.40
2008,08,05,11,52,21.40
2008,08,05,11,53,21.40
2008,08,05,11,54,21.40
2008,08,05,11,55,21.40
2008,08,05,11,56,21.40
2008,08,05,11,57,21.40
2008,08,05,11,58,21.60
2008,08,05,11,59,21.70
2008,08,05,12,00,21.70
2008,08,05,12,01,21.70
2008,08,05,12,02,21.80
2008,08,05,12,03,21.80
2008,08,05,12,04,21.90
2008,08,05,12,05,22.00
2008,08,05,12,06,22.10
2008,08,05,12,07,22.20
2008,08,05,12,08,22.10
2008,08,05,12,09,22.10
2008,08,05,12,10,22.00
2008,08,05,12,11,22.10
2008,08,05,12,12,22.20
2008,08,05,12,13,22.20
2008,08,05,12,14,22.20
2008,08,05,12,15,22.20
2008,08,05,12,16,22.20
2008,08,05,12,17,22.20
2008,08,05,12,18,22.20
2008,08,05,12,19,22.30
2008,08,05,12,20,22.40
2008,08,05,12,21,22.60
2008,08,05,12,22,22.70
2008,08,05,12,23,22.80
2008,08,05,12,24,22.90
2008,08,05,12,25,23.00
2008,08,05,12,26,23.10
2008,08,05,12,27,23.20
2008,08,05,12,28,23.20
2008,08,05,12,29,23.20
2008,08,05,12,30,23.00
2008,08,05,12,31,22.90
2008,08,05,12,32,22.80
2008,08,05,12,33,22.60
2008,08,05,12,34,22.50
2008,08,05,12,35,22.40
2008,08,05,12,36,22.40
2008,08,05,12,37,22.40
2008,08,05,12,38,22.50
2008,08,05,12,39,22.70
2008,08,05,12,40,22.80
2008,08,05,12,41,22.80
2008,08,05,12,42,22.80
2008,08,05,12,43,22.90
2008,08,05,12,44,23.00
2008,08,05,12,45,23.00
2008,08,05,12,46,23.10
2008,08,05,12,47,23.20
2008,08,05,12,48,23.30
2008,08,05,12,49,23.20
2008,08,05,12,50,23.10
2008,08,05,12,51,23.00
2008,08,05,12,52,22.90
2008,08,05,12,53,22.70
2008,08,05,12,54,22.60
2008,08,05,12,55,22.60
2008,08,05,12,56,22.60
2008,08,05,12,57,22.60
2008,08,05,12,58,22.70
2008,08,05,12,59,22.70
2008,08,05,13,00,22.80
2008,08,05,13,01,23.00
2008,08,05,13,02,23.00
2008,08,05,13,03,23.10
2008,08,05,13,04,23.10
2008,08,05,13,05,23.00
2008,08,05,13,06,23.00
2008,08,05,13,07,22.90
2008,08,05,13,08,23.00
2008,08,05,13,09,23.10
2008,08,05,13,10,23.10
2008,08,05,13,11,23.20
2008,08,05,13,12,23.20
2008,08,05,13,13,23.20
2008,08,05,13,14,23.20
2008,08,05,13,15,23.30
2008,08,05,13,16,23.30
2008,08,05,13,17,23.30
2008,08,05,13,18,23.30
2008,08,05,13,19,23.20
2008,08,05,13,20,23.20
2008,08,05,13,21,23.20
2008,08,05,13,22,23.20
2008,08,05,13,23,23.20
2008,08,05,13,24,23.30
2008,08,05,13,25,23.40
2008,08,05,13,26,23.40
2008,08,05,13,27,23.50
2008,08,05,13,28,23.60
2008,08,05,13,29,23.60
2008,08,05,13,30,23.50
2008,08,05,13,31,23.50
2008,08,05,13,32,23.50
2008,08,05,13,33,23.50
2008,08,05,13,34,23.50
2008,08,05,13,35,23.60
2008,08,05,13,36,23.60
2008,08,05,13,37,23.60
2008,08,05,13,38,23.50
2008,08,05,13,39,23.50
2008,08,05,13,40,23.50
2008,08,05,13,41,23.50
2008,08,05,13,42,23.40
2008,08,05,13,43,23.40
2008,08,05,13,44,23.40
2008,08,05,13,45,23.30
2008,08,05,13,46,23.40
2008,08,05,13,47,23.40
2008,08,05,13,48,23.40
2008,08,05,13,49,23.50
2008,08,05,13,50,23.50
2008,08,05,13,51,23.50
2008,08,05,13,52,23.50
2008,08,05,13,53,23.50
2008,08,05,13,54,23.60
2008,08,05,13,55,23.70
2008,08,05,13,56,23.70
2008,08,05,13,57,23.80
2008,08,05,13,58,23.90
2008,08,05,13,59,23.90
2008,08,05,14,00,24.00
2008,08,05,14,01,24.10
2008,08,05,14,02,24.10
2008,08,05,14,03,24.20
2008,08,05,14,04,24.30
2008,08,05,14,05,24.50
2008,08,05,14,06,24.60
2008,08,05,14,07,24.70
2008,08,05,14,08,24.70
2008,08,05,14,09,24.70
2008,08,05,14,10,24.70
2008,08,05,14,11,24.50
2008,08,05,14,12,24.40
2008,08,05,14,13,24.30
2008,08,05,14,14,24.10
2008,08,05,14,15,24.20
2008,08,05,14,16,24.20
2008,08,05,14,17,24.30
2008,08,05,14,18,24.40
2008,08,05,14,19,24.50
2008,08,05,14,20,24.60
2008,08,05,14,21,24.70
2008,08,05,14,22,24.70
2008,08,05,14,23,24.80
2008,08,05,14,24,24.80
2008,08,05,14,25,24.90
2008,08,05,14,26,24.80
2008,08,05,14,27,24.80
2008,08,05,14,28,24.80
2008,08,05,14,29,24.80
2008,08,05,14,30,24.70
2008,08,05,14,31,24.70
2008,08,05,14,32,24.60
2008,08,05,14,33,24.70
2008,08,05,14,34,24.70
2008,08,05,14,35,24.80
2008,08,05,14,36,24.80
2008,08,05,14,37,24.90
2008,08,05,14,38,24.90
2008,08,05,14,39,24.90
2008,08,05,14,40,25.00
2008,08,05,14,41,25.10
2008,08,05,14,42,25.20
2008,08,05,14,43,25.30
2008,08,05,14,44,25.30
2008,08,05,14,45,25.40
2008,08,05,14,46,25.40
2008,08,05,14,47,25.40
2008,08,05,14,48,25.30
2008,08,05,14,49,25.20
2008,08,05,14,50,25.10
2008,08,05,14,51,25.10
2008,08,05,14,52,25.10
2008,08,05,14,53,25.10
2008,08,05,14,54,25.20
2008,08,05,14,55,25.20
2008,08,05,14,56,25.30
2008,08,05,14,57,25.40
2008,08,05,14,58,25.40
2008,08,05,14,59,25.40
2008,08,05,15,00,25.40
2008,08,05,15,01,25.30
2008,08,05,15,02,25.30
2008,08,05,15,03,25.30
2008,08,05,15,04,25.30
2008,08,05,15,05,25.30
2008,08,05,15,06,25.30
2008,08,05,15,07,25.20
2008,08,05,15,08,25.10
2008,08,05,15,09,25.00
2008,08,05,15,10,24.90
2008,08,05,15,11,24.90
2008,08,05,15,12,24.80
2008,08,05,15,13,24.90
2008,08,05,15,14,24.90
2008,08,05,15,15,24.90
2008,08,05,15,16,25.00
2008,08,05,15,17,25.10
2008,08,05,15,18,25.10
2008,08,05,15,19,25.10
2008,08,05,15,20,25.00
2008,08,05,15,21,25.00
2008,08,05,15,22,25.00
2008,08,05,15,23,25.00
2008,08,05,15,24,25.10
2008,08,05,15,25,25.00
2008,08,05,15,26,25.00
2008,08,05,15,27,25.10
2008,08,05,15,28,25.10
2008,08,05,15,29,25.10
2008,08,05,15,30,25.20
2008,08,05,15,31,25.20
2008,08,05,15,32,25.20
2008,08,05,15,33,25.30
2008,08,05,15,34,25.40
2008,08,05,15,35,25.50
2008,08,05,15,36,25.60
2008,08,05,15,37,25.70
2008,08,05,15,38,25.80
2008,08,05,15,39,25.90
2008,08,05,15,40,25.90
2008,08,05,15,41,25.90
2008,08,05,15,42,25.90
2008,08,05,15,43,25.90
2008,08,05,15,44,25.90
2008,08,05,15,45,25.90
2008,08,05,15,46,25.80
2008,08,05,15,47,25.80
2008,08,05,15,48,25.70
2008,08,05,15,49,25.70
2008,08,05,15,50,25.80
2008,08,05,15,51,25.70
2008,08,05,15,52,25.70
2008,08,05,15,53,25.70
2008,08,05,15,54,25.80
2008,08,05,15,55,25.80
2008,08,05,15,56,25.90
2008,08,05,15,57,25.90
2008,08,05,15,58,25.90
2008,08,05,15,59,25.90
2008,08,05,16,00,25.90
2008,08,05,16,01,25.90
2008,08,05,16,02,25.90
2008,08,05,16,03,25.90
2008,08,05,16,04,26.00
2008,08,05,16,05,26.20
2008,08,05,16,06,26.20
2008,08,05,16,07,26.30
2008,08,05,16,08,26.40
2008,08,05,16,09,26.40
2008,08,05,16,10,26.40
2008,08,05,16,11,26.40
2008,08,05,16,12,26.40
2008,08,05,16,13,26.40
2008,08,05,16,14,26.40
2008,08,05,16,15,26.40
2008,08,05,16,16,26.40
2008,08,05,16,17,26.40
2008,08,05,16,18,26.50
2008,08,05,16,19,26.50
2008,08,05,16,20,26.60
2008,08,05,16,21,26.60
2008,08,05,16,22,26.60
2008,08,05,16,23,26.50
2008,08,05,16,24,26.50
2008,08,05,16,25,26.50
2008,08,05,16,26,26.50
2008,08,05,16,27,26.60
2008,08,05,16,28,26.70
2008,08,05,16,29,26.80
2008,08,05,16,30,26.90
2008,08,05,16,31,26.90
2008,08,05,16,32,26.90
2008,08,05,16,33,27.00
2008,08,05,16,34,27.00
2008,08,05,16,35,27.00
2008,08,05,16,36,27.00
2008,08,05,16,37,27.10
2008,08,05,16,38,27.10
2008,08,05,16,39,27.10
2008,08,05,16,40,27.00
2008,08,05,16,41,27.00
2008,08,05,16,42,27.00
2008,08,05,16,43,27.10
2008,08,05,16,44,27.10
2008,08,05,16,45,27.10
2008,08,05,16,46,27.10
2008,08,05,16,47,27.20
2008,08,05,16,48,27.20
2008,08,05,16,49,27.20
2008,08,05,16,50,27.20
2008,08,05,16,51,27.30
2008,08,05,16,52,27.20
2008,08,05,16,53,27.20
2008,08,05,16,54,27.20
2008,08,05,16,55,27.20
2008,08,05,16,56,27.20
2008,08,05,16,57,27.20
2008,08,05,16,58,27.30
2008,08,05,16,59,27.30
2008,08,05,17,00,27.30
2008,08,05,17,01,27.30
2008,08,05,17,02,27.40
2008,08,05,17,03,27.40
2008,08,05,17,04,27.50
2008,08,05,17,05,27.50
2008,08,05,17,06,27.50
2008,08,05,17,07,27.50
2008,08,05,17,08,27.50
2008,08,05,17,09,27.40
2008,08,05,17,10,27.40
2008,08,05,17,11,27.40
2008,08,05,17,12,27.40
2008,08,05,17,13,27.30
2008,08,05,17,14,27.30
2008,08,05,17,15,27.20
2008,08,05,17,16,27.20
2008,08,05,17,17,27.20
2008,08,05,17,18,27.20
2008,08,05,17,19,27.30
2008,08,05,17,20,27.40
2008,08,05,17,21,27.50
2008,08,05,17,22,27.60
2008,08,05,17,23,27.60
2008,08,05,17,24,27.70
2008,08,05,17,25,27.80
2008,08,05,17,26,27.90
2008,08,05,17,27,27.90
2008,08,05,17,28,27.90
2008,08,05,17,29,27.90
2008,08,05,17,30,27.90
2008,08,05,17,31,27.80
2008,08,05,17,32,27.70
2008,08,05,17,33,27.70
2008,08,05,17,34,27.60
2008,08,05,17,35,27.50
2008,08,05,17,36,27.50
2008,08,05,17,37,27.50
2008,08,05,17,38,27.50
2008,08,05,17,39,27.60
2008,08,05,17,40,27.60
2008,08,05,17,41,27.60
2008,08,05,17,42,27.70
2008,08,05,17,43,27.80
2008,08,05,17,44,27.80
2008,08,05,17,45,27.80
2008,08,05,17,46,27.70
2008,08,05,17,47,27.70
2008,08,05,17,48,27.60
2008,08,05,17,49,27.50
2008,08,05,17,50,27.40
2008,08,05,17,51,27.40
2008,08,05,17,52,27.40
2008,08,05,17,53,27.40
2008,08,05,17,54,27.40
2008,08,05,17,55,27.40
2008,08,05,17,56,27.50
2008,08,05,17,57,27.50
2008,08,05,17,58,27.60
2008,08,05,17,59,27.50
2008,08,05,18,00,27.50
2008,08,05,18,01,27.50
2008,08,05,18,02,27.50
2008,08,05,18,03,27.50
2008,08,05,18,04,27.60
2008,08,05,18,05,27.60
2008,08,05,18,06,27.60
2008,08,05,18,07,27.70